Location: Newark
(47.5500°N, 8.6167°E)
Time: 01:36:39
(UTC+00:00)

NOAA 18 - Visible Passes

Search period start: 03 April 2020 00:00
Search period end: 13 April 2020 00:00
Orbit: 840 x 862 km, 99.1° (Epoch: 02 April)

Date Brightness Start Highest point End Pass type
(mag) Time Alt. Az. Time Alt. Az. Time Alt. Az.
03 Apr 5.8 19:02:11 14° SE 19:06:26 37° ENE 19:11:25 10° N visible
03 Apr 6.4 20:44:10 22° SSW 20:47:06 36° W 20:52:08 10° NNW visible
04 Apr 6.1 18:50:08 10° ESE 18:54:44 31° ENE 18:59:27 10° N visible
04 Apr 6.0 20:32:08 23° SSW 20:35:13 45° W 20:40:28 10° NNW visible
05 Apr 6.4 18:38:41 10° ESE 18:43:03 25° ENE 18:47:26 10° N visible
05 Apr 5.7 20:20:06 23° S 20:23:22 57° WSW 20:28:46 10° NNW visible
06 Apr 6.6 18:27:26 10° ESE 18:31:24 21° ENE 18:35:22 10° N visible
06 Apr 5.4 20:08:04 23° S 20:11:32 71° WSW 20:17:01 10° NNW visible
06 Apr 7.9 21:52:20 10° W 21:53:11 10° W 21:54:02 10° WNW visible
07 Apr 5.2 19:56:01 22° SSE 19:59:44 87° WSW 20:05:14 10° NNW visible
07 Apr 7.7 21:38:34 10° WSW 21:41:11 13° W 21:43:50 10° WNW visible
08 Apr 5.1 19:43:59 19° SSE 19:47:56 76° ENE 19:53:24 10° NNW visible
08 Apr 7.5 21:25:59 11° SW 21:29:12 17° W 21:32:44 10° NW visible
09 Apr 5.3 19:31:57 17° SSE 19:36:10 62° ENE 19:41:33 10° N visible
09 Apr 7.2 21:13:57 13° SW 21:17:16 21° W 21:21:23 10° NW visible
10 Apr 5.5 19:19:55 14° SE 19:24:25 50° ENE 19:29:40 10° N visible
10 Apr 6.9 21:01:55 15° SW 21:05:20 27° W 21:09:54 10° NW visible
11 Apr 5.7 19:07:53 11° SE 19:12:41 41° ENE 19:17:46 10° N visible
11 Apr 6.6 20:49:53 17° SSW 20:53:25 33° W 20:58:20 10° NNW visible
12 Apr 6.0 18:56:09 10° SE 19:00:58 33° ENE 19:05:48 10° N visible
12 Apr 6.2 20:37:51 18° SSW 20:41:32 41° W 20:46:42 10° NNW visible
